Miscellaneous Local Product
Issued by NWS Hastings, NE

Home | Current Version | Previous Version | Text Only | Print | Product List | Glossary Off
Versions: 1 2 3 4 5 6 7 8 9 10 11 12 13 14 15 16 17 18 19 20 21 22 23 24 25 26 27 28 29 30 31 32 33 34 35 36 37 38 39 40 41 42 43 44 45 46 47 48 49 50

237
AXUS43 KGID 041202
MISGRI

GID CWA HOURLY WEATHER ROUNDUP
NATIONAL WEATHER SERVICE HASTINGS NE
600 AM CST SUN DEC 04 2016

NOTE: "FAIR" INDICATES FEW OR NO CLOUDS BELOW 12,000 FEET WITH NO
SIGNIFICANT WEATHER AND/OR OBSTRUCTIONS TO VISIBILITY.

...SOUTH CENTRAL NEBRASKA...

CITY           SKY/WX    TMP DP  RH WIND       PRES   REMARKS
GRAND ISLAND   CLOUDY    30  30 100 W12       29.96S FOG     WCI  20
HASTINGS       FOG       31  31 100 W7        29.97F VSB 1   WCI  24
KEARNEY        CLOUDY    28  25  86 W7        29.97S WCI  21
ORD            CLEAR     26  21  81 CALM      29.94S
YORK           CLOUDY    32  32 100 W10       29.96F FOG     WCI  24
AURORA         CLOUDY    31  31 100 W8        29.96S FOG     WCI  23
LEXINGTON      PTCLDY    24  21  89 W8        29.98S WCI  15
HOLDREGE       CLEAR     27  25  92 W6        29.97S WCI  21
HEBRON         CLOUDY    32  31  97 CALM      29.99F

...NEBRASKA PANHANDLE...

CITY           SKY/WX    TMP DP  RH WIND       PRES   REMARKS
CHADRON        CLOUDY    27  15  61 SW9       29.95F WCI  18
ALLIANCE       CLEAR     17  12  80 W10       29.96F WCI   5
SCOTTSBLUFF    CLEAR     17  10  74 NW6       29.99F WCI   9
SIDNEY         CLEAR     23  14  68 W13       30.00S WCI  11

...WESTERN AND NORTH CENTRAL NEBRASKA...

CITY           SKY/WX    TMP DP  RH WIND       PRES   REMARKS
VALENTINE      PTCLDY    21  18  88 SW5       29.91F WCI  15
AINSWORTH      CLEAR     25  21  85 W6        29.92S WCI  18
ONEILL         CLEAR     27  23  84 W6        29.91S WCI  21
BROKEN BOW     PTCLDY    33  22  63 W13       29.94S WCI  24
IMPERIAL       CLEAR     24  14  65 W13       30.01S WCI  12
NORTH PLATTE   PTCLDY    19  15  84 W8        29.98S WCI   9
MCCOOK         CLEAR     23  17  78 W13       30.00S WCI  11

...EASTERN NEBRASKA...

CITY           SKY/WX    TMP DP  RH WIND       PRES   REMARKS
NORFOLK        PTCLDY    29  27  92 W7        29.92S WCI  22
SO SIOUX CITY  CLOUDY    35  32  88 S6        29.94F WCI  30
TEKAMAH        CLOUDY    33  31  92 S7        29.96F WCI  27
COLUMBUS       CLEAR     30  28  93 SW3       29.95S
ALBION         PTCLDY    30  28  90 CALM      29.93F
OMAHA EPPLEY   CLOUDY    34  30  85 CALM      29.98F
OFFUTT AFB     CLOUDY    34  34 100 SW5       29.98F WCI  30
MILLARD        CLOUDY    34  32  92 CALM      29.98F
LINCOLN        CLOUDY    34  32  92 SW5       29.99F WCI  30
NEBRASKA CITY  CLOUDY    34  34 100 W6        30.00R FOG     WCI  29
BEATRICE       CLOUDY    33  32  98 W7        30.00S WCI  27
FALLS CITY     LGT RAIN  37  37 100 W5        29.99F WCI  33

...NORTHERN KANSAS...

CITY           SKY/WX    TMP DP  RH WIND       PRES   REMARKS
GOODLAND       CLEAR     21  12  68 W13       30.02S WCI   9
HILL CITY      CLEAR     25  20  81 W6        30.02S WCI  18
NORTON         SUNNY     28  18  64 W13       29.99S WCI  18
PHILLIPSBURG   CLEAR     27  27 100 W8        30.01S WCI  18
SMITH CENTER   CLOUDY    30  30 100 W3        30.01S FOG
BELOIT         CLOUDY    30  30 100 NW5       30.01S WCI  25
HAYS           CLEAR     28  27  96 W6        30.02S WCI  22
RUSSELL        CLOUDY    32  31  96 W12       30.00S FOG     WCI  23
CONCORDIA      FOG       31  31 100 W9        30.01F VSB 3/4 WCI  23
SALINA         MOCLDY    35  34  96 NW9       30.02F WCI  28
TOPEKA         LGT RAIN  40  36  86 W3        30.03S



USA.gov is the U.S. government's official web portal to all federal, state and local government web resources and services.